EW3149 Weather Reports


time (UTC)temp
C
wind
direction
speed
KPH
gust
KPH
rain 1hr
cm
rain 24hr
cm
rain mn
cm
humidity
%
barometer
mb
20260906080404 20 52 8.0 14.5 0.03 0.38 0.05 89 1015.0
20260906075903 20 52 9.7 14.5 0.03 0.38 0.05 89 1015.0
20260906075404 20 36 9.7 14.5 0.03 0.38 0.05 89 1014.9
20260906074904 20 41 8.0 16.1 0.03 0.38 0.05 89 1014.8
20260906074404 20 49 9.7 16.1 0.03 0.38 0.05 89 1014.7
20260906073904 20 46 9.7 16.1 0.03 0.38 0.05 89 1014.7
20260906073403 20 43 8.0 14.5 0.03 0.38 0.05 89 1014.8
20260906072404 20 52 8.0 11.3 0.03 0.38 0.05 89 1014.7
20260906071904 20 57 6.4 19.3 0.03 0.38 0.05 90 1014.6
20260906070905 20 53 9.7 16.1 0.00 0.36 0.03 90 1014.6
20260906070401 20 44 8.0 14.5 0.00 0.36 0.03 90 1014.6
20260906065401 20 42 9.7 14.5 0.00 0.36 0.03 91 1014.8
20260906064901 20 42 8.0 9.7 0.00 0.36 0.03 92 1014.8
20260906064401 20 54 8.0 9.7 0.00 0.36 0.03 92 1014.8
20260906062901 20 50 6.4 9.7 0.00 0.36 0.03 93 1014.9
20260906061901 20 34 9.7 14.5 0.00 0.36 0.03 93 1014.8
20260906061401 20 40 8.0 14.5 0.00 0.36 0.03 93 1014.8
20260906060901 20 36 9.7 14.5 0.00 0.36 0.03 93 1014.7
20260906060401 20 24 8.0 16.1 0.00 0.36 0.03 93 1014.7
20260906055901 20 35 8.0 9.7 0.00 0.36 0.03 93 1014.6
20260906055401 20 27 8.0 14.5 0.00 0.36 0.03 93 1014.6
20260906054901 20 38 8.0 19.3 0.00 0.36 0.03 93 1014.6
20260906053901 20 47 9.7 14.5 0.03 0.36 0.03 93 1014.5
20260906053401 20 36 6.4 9.7 0.03 0.36 0.03 93 1014.4
20260906052401 20 81 6.4 11.3 0.03 0.36 0.03 93 1014.4
20260906051401 20 84 6.4 12.9 0.03 0.36 0.03 93 1014.3
20260906050901 20 80 4.8 11.3 0.03 0.36 0.03 93 1014.3
20260906050401 20 80 4.8 8.0 0.03 0.36 0.03 94 1014.3
20260906045901 20 63 4.8 9.7 0.03 0.36 0.03 94 1014.2
20260906045401 20 61 4.8 14.5 0.03 0.36 0.03 94 1014.1
20260906044901 20 50 8.0 16.1 0.03 0.36 0.03 94 1014.2
20260906044401 20 62 9.7 16.1 0.03 0.36 0.03 94 1014.1
20260906043901 21 55 9.7 16.1 0.03 0.33 0.00 94 1014.0
20260906043401 21 51 9.7 16.1 0.03 0.33 0.00 94 1014.0
20260906042901 21 54 9.7 14.5 0.03 0.33 0.00 94 1014.0
20260906042402 21 57 4.8 12.9 0.03 0.33 0.00 94 1014.0
20260906041901 21 51 8.0 11.3 0.03 0.33 0.00 94 1014.0
20260906041401 21 41 4.8 9.7 0.03 0.33 0.00 94 1014.1
20260906040901 21 36 4.8 8.0 0.03 0.33 0.00 94 1014.1
20260906040401 21 45 4.8 9.7 0.03 0.33 0.00 94 1014.1
20260906035901 21 60 4.8 11.3 0.03 0.33 0.33 94 1014.1
20260906034901 21 51 4.8 9.7 0.03 0.33 0.33 94 1014.1
20260906034401 21 27 8.0 9.7 0.03 0.33 0.33 94 1014.2
20260906033901 21 33 4.8 9.7 0.00 0.30 0.30 94 1014.2
20260906033402 21 49 8.0 16.1 0.00 0.30 0.30 94 1014.1
20260906032901 21 47 6.4 11.3 0.00 0.30 0.30 94 1014.1
20260906031901 21 49 8.0 19.3 0.00 0.30 0.30 94 1013.9
20260906031401 21 53 8.0 11.3 0.00 0.30 0.30 95 1014.0
20260906030901 21 52 4.8 12.9 0.03 0.30 0.30 95 1013.9
20260906030402 21 41 8.0 16.1 0.03 0.30 0.30 95 1013.9
20260906025402 22 46 6.4 19.3 0.03 0.30 0.30 95 1013.7
20260906024901 22 68 8.0 14.5 0.03 0.30 0.30 95 1013.7
20260906024402 22 65 8.0 14.5 0.03 0.30 0.30 95 1013.6
20260906023902 22 58 8.0 12.9 0.03 0.30 0.30 95 1013.5
20260906023402 22 76 8.0 16.1 0.03 0.30 0.30 95 1013.4
20260906022901 22 62 9.7 19.3 0.03 0.30 0.30 95 1013.4
20260906022402 22 40 12.9 19.3 0.03 0.30 0.30 95 1013.4
20260906021901 22 49 9.7 19.3 0.03 0.30 0.30 95 1013.4
20260906020401 22 60 14.5 20.9 0.03 0.28 0.28 95 1013.3
20260906014401 22 56 11.3 20.9 0.03 0.28 0.28 95 1012.9
20260906013402 22 50 17.7 25.7 0.05 0.28 0.28 95 1012.6
20260906012401 23 53 17.7 29.0 0.05 0.28 0.28 95 1012.7
20260906011902 23 48 12.9 22.5 0.05 0.28 0.28 95 1012.6
20260906011402 23 59 11.3 19.3 0.08 0.28 0.28 95 1012.5
20260906010901 23 45 14.5 24.1 0.05 0.25 0.25 95 1012.4
20260906005902 23 44 9.7 19.3 0.08 0.25 0.25 95 1012.3
20260906004901 23 67 8.0 14.5 0.10 0.25 0.25 95 1012.1
20260906004401 23 71 6.4 11.3 0.13 0.25 0.25 95 1012.1
20260906003902 23 70 6.4 12.9 0.13 0.25 0.25 95 1012.1
20260906003402 24 72 6.4 11.3 0.13 0.23 0.23 95 1012.1
20260906002902 24 53 4.8 11.3 0.15 0.23 0.23 95 1012.1
20260906002402 24 62 8.0 12.9 0.18 0.23 0.23 95 1011.9
20260906001902 24 50 6.4 16.1 0.20 0.23 0.23 95 1011.8
20260906000902 24 48 14.5 20.9 0.18 0.20 0.20 95 1011.6
20260906000403 24 50 11.3 19.3 0.18 0.20 0.20 95 1011.6
20260905235902 24 57 8.0 14.5 0.15 0.18 0.18 95 1011.6
20260905235402 24 65 6.4 16.1 0.13 0.15 0.15 95 1011.6
20260905234902 24 42 6.4 11.3 0.13 0.15 0.15 94 1011.6
20260905234402 24 59 4.8 9.7 0.10 0.13 0.13 93 1011.6
20260905233902 24 57 6.4 14.5 0.10 0.13 0.13 92 1011.7
20260905233402 25 61 4.8 11.3 0.08 0.10 0.10 90 1011.6
20260905232902 25 54 11.3 25.7 0.05 0.08 0.08 87 1011.7
20260905232402 26 22 16.1 29.0 0.03 0.05 0.05 84 1011.7
20260905231902 27 31 14.5 19.3 0.00 0.03 0.03 85 1011.3
20260905231402 27 61 4.8 9.7 0.00 0.03 0.03 84 1010.8
20260905230402 28 54 9.7 12.9 0.00 0.03 0.03 82 1010.8
20260905225902 28 62 4.8 9.7 0.00 0.03 0.03 83 1010.8
20260905225402 28 90 3.2 4.8 0.00 0.03 0.03 83 1010.8
20260905224902 28 63 3.2 4.8 0.00 0.03 0.03 83 1010.9
20260905224402 28 59 0.0 4.8 0.00 0.03 0.03 84 1010.9
20260905222902 28 57 4.8 9.7 0.00 0.03 0.03 83 1010.8
20260905222402 28 53 6.4 12.9 0.00 0.03 0.03 81 1010.9
20260905221902 29 82 4.8 16.1 0.00 0.03 0.03 81 1010.9
20260905221402 29 43 6.4 11.3 0.00 0.03 0.03 81 1010.8
20260905220402 28 24 6.4 12.9 0.00 0.03 0.03 80 1010.7
20260905215902 28 59 8.0 19.3 0.00 0.03 0.03 80 1010.6
20260905215402 28 32 9.7 16.1 0.00 0.03 0.03 80 1010.5
20260905214902 29 42 4.8 14.5 0.00 0.03 0.03 81 1010.5
20260905214402 28 19 6.4 14.5 0.00 0.03 0.03 82 1010.4
20260905213902 28 31 6.4 9.7 0.00 0.03 0.03 82 1010.5
20260905213402 28 34 9.7 19.3 0.00 0.03 0.03 81 1010.5
20260905212902 29 46 9.7 16.1 0.00 0.03 0.03 80 1010.5
20260905212402 29 56 8.0 19.3 0.00 0.03 0.03 81 1010.5
20260905211902 29 44 6.4 11.3 0.00 0.03 0.03 81 1010.5
20260905211402 29 28 4.8 12.9 0.00 0.03 0.03 80 1010.5
20260905210402 29 35 11.3 19.3 0.00 0.03 0.03 80 1010.4
20260905205902 30 21 9.7 16.1 0.00 0.03 0.03 79 1010.5
20260905205402 30 357 6.4 14.5 0.00 0.03 0.03 79 1010.6
20260905204402 30 9 8.0 12.9 0.00 0.03 0.03 78 1010.6
20260905203902 30 341 6.4 12.9 0.00 0.03 0.03 78 1010.6
20260905203402 30 14 6.4 12.9 0.00 0.03 0.03 79 1010.7
20260905202902 30 19 8.0 14.5 0.00 0.03 0.03 79 1010.7
20260905202403 30 348 8.0 16.1 0.00 0.03 0.03 78 1010.8
20260905201902 30 21 11.3 16.1 0.00 0.03 0.03 78 1010.8
20260905201402 30 26 8.0 16.1 0.00 0.03 0.03 78 1011.0
20260905200902 30 35 8.0 14.5 0.00 0.03 0.03 77 1011.0
20260905195902 30 3 8.0 12.9 0.00 0.03 0.03 77 1011.0
20260905195402 30 300 3.2 11.3 0.00 0.03 0.03 76 1011.1
20260905194902 30 344 4.8 11.3 0.00 0.03 0.03 77 1011.1
20260905194402 30 27 4.8 9.7 0.00 0.05 0.03 77 1011.1
20260905193902 30 0 3.2 8.0 0.00 0.05 0.03 79 1011.2
20260905192902 30 344 1.6 8.0 0.00 0.10 0.03 78 1011.2
20260905192403 30 13 3.2 11.3 0.00 0.13 0.03 79 1011.2
20260905191902 30 299 4.8 14.5 0.00 0.15 0.03 78 1011.4
20260905191403 30 354 3.2 8.0 0.00 0.18 0.03 77 1011.5
20260905190903 30 314 1.6 4.8 0.00 0.18 0.03 76 1011.6
20260905190402 30 294 9.7 19.3 0.00 0.20 0.03 75 1011.6
20260905185902 30 301 6.4 16.1 0.00 0.23 0.03 76 1011.5
20260905185402 30 279 8.0 12.9 0.00 0.25 0.03 77 1011.6
20260905184902 30 299 4.8 11.3 0.00 0.30 0.03 76 1011.7
20260905183903 30 260 6.4 11.3 0.00 0.38 0.03 78 1011.6
20260905182403 30 267 8.0 12.9 0.03 0.38 0.03 77 1011.8
20260905181902 29 258 8.0 16.1 0.03 0.38 0.03 78 1011.8
20260905181402 29 270 4.8 12.9 0.03 0.38 0.03 78 1011.8
20260905180903 29 277 4.8 11.3 0.03 0.38 0.03 81 1011.8
20260905180403 29 249 4.8 9.7 0.03 0.38 0.03 82 1011.9
20260905175903 28 209 4.8 11.3 0.03 0.38 0.03 83 1011.9
20260905175402 28 203 4.8 9.7 0.03 0.38 0.03 84 1012.0
20260905174402 27 238 1.6 8.0 0.03 0.38 0.03 85 1012.1
20260905173403 27 229 0.0 1.6 0.03 0.38 0.03 86 1012.2
20260905172903 26 229 0.0 0.0 0.03 0.38 0.03 83 1012.3
20260905172403 26 229 0.0 0.0 0.00 0.36 0.00 86 1012.5
20260905171903 26 229 0.0 3.2 0.00 0.36 0.00 83 1012.7
20260905170903 27 229 3.2 4.8 0.00 0.36 0.00 80 1012.8
20260905170403 27 259 3.2 8.0 0.00 0.36 0.00 80 1012.8
20260905165902 27 234 1.6 8.0 0.00 0.36 0.00 81 1012.7
20260905165403 27 213 4.8 12.9 0.00 0.36 0.00 85 1012.7
20260905164903 27 200 8.0 14.5 0.00 0.36 0.00 84 1012.6
20260905164402 27 203 4.8 12.9 0.00 0.36 0.00 85 1012.7
20260905163902 27 177 4.8 12.9 0.00 0.36 0.00 85 1012.8
20260905162903 26 205 6.4 14.5 0.00 0.36 0.00 86 1012.9
20260905162402 26 188 8.0 14.5 0.00 0.36 0.00 84 1013.1
20260905161903 26 191 6.4 14.5 0.00 0.36 0.00 83 1013.2
20260905161403 26 186 6.4 14.5 0.00 0.36 0.00 83 1013.2
20260905160902 26 192 6.4 12.9 0.00 0.36 0.00 85 1013.1
20260905160403 26 175 4.8 12.9 0.00 0.36 0.00 85 1013.1
20260905155903 26 218 4.8 12.9 0.00 0.36 0.00 84 1013.1
20260905155403 26 197 3.2 8.0 0.00 0.36 0.00 86 1013.1
20260905154902 25 212 4.8 11.3 0.00 0.36 0.00 87 1013.1
20260905154402 25 187 4.8 9.7 0.00 0.36 0.00 87 1013.1
20260905152903 25 201 4.8 11.3 0.00 0.36 0.00 88 1012.9
20260905152403 25 188 8.0 12.9 0.00 0.36 0.00 88 1012.9
20260905151403 25 221 6.4 12.9 0.00 0.36 0.00 87 1013.0
20260905150903 25 188 4.8 11.3 0.00 0.36 0.00 87 1013.1
20260905150403 25 236 6.4 14.5 0.00 0.36 0.00 86 1013.3
20260905145403 24 203 6.4 11.3 0.00 0.36 0.00 90 1012.9
20260905144902 23 155 3.2 9.7 0.00 0.36 0.00 90 1013.0
20260905144403 23 163 3.2 9.7 0.00 0.36 0.00 90 1013.0
20260905143902 23 174 3.2 8.0 0.00 0.36 0.00 90 1013.1
20260905143402 23 195 3.2 8.0 0.00 0.36 0.00 90 1013.1
20260905141903 23 169 1.6 8.0 0.00 0.36 0.00 88 1013.1
20260905141402 23 149 4.8 11.3 0.00 0.36 0.00 89 1013.0
20260905140903 23 174 6.4 20.9 0.00 0.36 0.00 89 1012.6
20260905140403 23 197 8.0 12.9 0.00 0.36 0.00 89 1012.4
20260905135403 23 189 8.0 11.3 0.00 0.36 0.00 91 1012.4
20260905134903 22 208 4.8 19.3 0.00 0.36 0.00 90 1012.4
20260905134403 22 197 8.0 16.1 0.00 0.36 0.00 91 1012.2
20260905133402 22 211 6.4 16.1 0.00 0.36 0.00 92 1012.4
20260905132903 22 173 9.7 19.3 0.00 0.36 0.00 92 1012.3
20260905132403 22 184 8.0 19.3 0.00 0.36 0.00 93 1012.2
20260905131904 22 181 9.7 19.3 0.00 0.36 0.00 92 1012.2
20260905131403 22 189 8.0 16.1 0.00 0.36 0.00 92 1012.2
20260905130903 22 173 9.7 22.5 0.00 0.36 0.00 93 1012.3
20260905130403 22 178 8.0 14.5 0.00 0.36 0.00 93 1012.3
20260905125902 22 170 8.0 12.9 0.00 0.36 0.00 94 1012.4
20260905124903 21 183 6.4 19.3 0.00 0.36 0.00 96 1012.4
20260905123903 21 188 6.4 19.3 0.00 0.36 0.00 95 1012.4
20260905123404 21 183 4.8 16.1 0.00 0.36 0.00 95 1012.4
20260905122904 21 177 8.0 14.5 0.00 0.36 0.00 96 1012.4
20260905122403 21 177 8.0 12.9 0.00 0.36 0.00 96 1012.4
20260905121902 21 195 6.4 11.3 0.00 0.36 0.00 96 1012.4
20260905121403 21 174 4.8 16.1 0.00 0.36 0.00 96 1012.4
20260905120903 20 195 4.8 9.7 0.00 0.36 0.00 96 1012.5
20260905120403 20 185 6.4 12.9 0.00 0.36 0.00 96 1012.3
20260905115903 20 203 4.8 8.0 0.00 0.36 0.00 96 1012.4
20260905114903 20 156 1.6 9.7 0.00 0.36 0.00 95 1012.6
20260905114403 20 157 4.8 11.3 0.00 0.36 0.00 95 1012.6
20260905113903 20 160 6.4 11.3 0.00 0.36 0.00 95 1012.5
20260905113403 20 164 3.2 9.7 0.00 0.36 0.00 95 1012.5
20260905112903 20 162 3.2 12.9 0.00 0.36 0.00 95 1012.5
20260905112404 20 160 1.6 8.0 0.00 0.36 0.00 95 1012.5
20260905111903 20 163 4.8 12.9 0.00 0.36 0.00 95 1012.5
20260905111403 20 176 3.2 11.3 0.00 0.36 0.00 95 1012.4
20260905110903 20 157 4.8 12.9 0.00 0.36 0.00 95 1012.4
20260905110403 20 135 4.8 12.9 0.00 0.36 0.00 94 1012.4
20260905105903 21 165 4.8 14.5 0.00 0.36 0.00 94 1012.2
20260905105404 21 177 3.2 9.7 0.00 0.36 0.00 94 1012.3
20260905104903 21 128 3.2 8.0 0.00 0.36 0.00 94 1012.3
20260905104404 21 141 3.2 8.0 0.00 0.36 0.00 93 1012.3
20260905103903 21 137 4.8 11.3 0.00 0.36 0.00 93 1012.3
20260905103404 21 106 6.4 14.5 0.00 0.36 0.00 93 1012.4
20260905102904 21 118 4.8 12.9 0.00 0.36 0.00 93 1012.3
20260905102404 21 119 6.4 12.9 0.00 0.36 0.00 93 1012.4
20260905101904 21 144 6.4 14.5 0.00 0.36 0.00 93 1012.4
20260905100903 21 101 4.8 14.5 0.00 0.36 0.00 92 1012.6
20260905100404 21 139 4.8 11.3 0.00 0.36 0.00 92 1012.6
20260905095903 21 91 8.0 14.5 0.00 0.36 0.00 92 1012.7
20260905095403 21 97 4.8 16.1 0.00 0.36 0.00 92 1012.6
20260905094903 21 112 4.8 11.3 0.00 0.36 0.00 92 1012.7
20260905094403 21 105 4.8 12.9 0.00 0.36 0.00 92 1012.6
20260905093903 21 103 4.8 14.5 0.00 0.36 0.00 93 1012.7
20260905093403 21 79 4.8 16.1 0.00 0.36 0.00 93 1012.7
20260905092404 21 64 11.3 19.3 0.00 0.36 0.00 94 1012.7
20260905091904 22 61 11.3 25.7 0.00 0.36 0.00 95 1012.4
20260905091404 23 125 4.8 16.1 0.00 0.36 0.00 96 1012.1
20260905090904 23 64 12.9 19.3 0.00 0.36 0.00 97 1012.3
20260905090404 23 91 6.4 19.3 0.00 0.36 0.00 98 1012.0
20260905085903 23 59 9.7 27.4 0.00 0.36 0.00 98 1012.1
20260905085404 23 52 8.0 14.5 0.00 0.36 0.00 98 1011.8
20260905084403 22 32 0.0 0.0 0.00 0.36 0.00 97 1011.2
20260905083904 22 32 0.0 0.0 0.00 0.36 0.00 97 1011.3
20260905083403 23 32 0.0 0.0 0.00 0.36 0.00 97 1011.3
20260905082903 23 32 0.0 0.0 0.00 0.36 0.00 97 1011.3
20260905082403 23 32 0.0 0.0 0.00 0.36 0.00 97 1011.3
20260905081403 23 32 0.0 0.0 0.00 0.38 0.00 97 1011.3
20260905080905 23 32 0.0 0.0 0.00 0.38 0.00 97 1011.3